Location: Caltech
(34.1382°N, 118.1253°W)
Time: 00:22:07
(UTC-07:00)

KITSAT 1 - Visible Passes

Search period start: 31 July 2014 00:00
Search period end: 10 August 2014 00:00
Orbit: 1310 x 1321 km, 66.1° (Epoch: 30 July)

Date Brightness Start Highest point End Pass type
(mag) Time Alt. Az. Time Alt. Az. Time Alt. Az.
31 Jul 11.7 04:47:46 10° SSE 04:54:44 33° ESE 05:01:42 10° NE visible
01 Aug 11.0 05:02:51 10° S 05:10:35 51° ESE 05:18:19 10° NE visible
02 Aug 12.6 03:30:31 10° ESE 03:32:27 11° E 03:34:24 10° E visible
02 Aug 10.5 05:18:28 10° SSW 05:26:32 77° ESE 05:34:38 10° NNE visible
03 Aug 12.2 03:42:40 10° SE 03:48:05 20° ESE 03:53:29 10° ENE visible
03 Aug 10.3 05:34:32 10° SSW 05:42:37 74° WNW 05:50:44 10° NNE visible
04 Aug 11.6 03:56:55 10° SSE 04:03:48 32° ESE 04:10:42 10° NE visible
05 Aug 10.9 04:12:54 14° S 04:19:39 49° ESE 04:27:21 10° NE visible
06 Aug 12.5 02:40:18 10° ESE 02:41:33 10° E 02:42:48 10° E visible
06 Aug 10.4 04:29:11 18° SSW 04:35:35 75° ESE 04:43:40 10° NNE visible
07 Aug 12.0 02:53:24 14° SE 02:57:10 19° ESE 03:02:25 10° ENE visible
07 Aug 10.2 04:45:25 19° SW 04:51:39 76° WNW 04:59:47 10° NNE visible
08 Aug 11.5 03:09:34 23° SE 03:12:53 31° ESE 03:19:41 10° NE visible
08 Aug 10.5 05:01:35 17° SW 05:07:52 51° WNW 05:15:44 10° NNE visible
09 Aug 10.8 03:25:41 34° SSE 03:28:42 48° ESE 03:36:22 10° NE visible
09 Aug 11.0 05:17:42 13° WSW 05:24:13 35° NW 05:31:30 10° NNE visible
